Time,TemperatureF,DewpointF,PressureIn,WindDirection,WindDirectionDegrees,WindSpeedMPH,WindSpeedGustMPH,Humidity,HourlyPrecipIn,Conditions,Clouds,dailyrainin,SoftwareType,DateUTC
2013-11-28 00:01:00,19.9,12.3,30.36,WSW,250,0.0,1.0,72,0.00,,,0.00,Wunderground v.1.15,2013-11-28 05:01:00,
2013-11-28 00:02:00,19.9,12.3,30.36,WSW,250,0.0,3.0,72,0.00,,,0.00,Wunderground v.1.15,2013-11-28 05:02:00,
2013-11-28 00:03:00,19.9,12.0,30.36,WSW,250,0.0,4.0,71,0.00,,,0.00,Wunderground v.1.15,2013-11-28 05:03:00,
2013-11-28 00:04:00,19.9,12.0,30.36,WSW,250,1.0,4.0,71,0.00,,,0.00,Wunderground v.1.15,2013-11-28 05:04:00,
2013-11-28 00:07:00,19.9,12.3,30.35,WSW,250,1.0,4.0,72,0.00,,,0.00,Wunderground v.1.15,2013-11-28 05:07:00,
2013-11-28 00:13:00,19.7,12.1,30.35,WSW,250,0.0,1.0,72,0.00,,,0.00,Wunderground v.1.15,2013-11-28 05:13:00,
2013-11-28 00:14:00,19.7,12.1,30.35,WSW,250,0.0,1.0,72,0.00,,,0.00,Wunderground v.1.15,2013-11-28 05:14:00,
2013-11-28 00:19:00,19.7,12.1,30.35,WSW,250,0.0,1.0,72,0.00,,,0.00,Wunderground v.1.15,2013-11-28 05:19:00,
2013-11-28 00:25:00,19.7,12.1,30.37,WSW,250,0.0,1.0,72,0.00,,,0.00,Wunderground v.1.15,2013-11-28 05:25:00,
2013-11-28 00:30:00,19.5,12.3,30.37,WSW,250,0.0,0.0,73,0.00,,,0.00,Wunderground v.1.15,2013-11-28 05:30:00,
2013-11-28 00:36:00,19.5,12.3,30.37,WSW,250,0.0,3.0,73,0.00,,,0.00,Wunderground v.1.15,2013-11-28 05:36:00,
2013-11-28 00:41:00,19.5,12.3,30.38,WSW,250,0.0,2.0,73,0.00,,,0.00,Wunderground v.1.15,2013-11-28 05:41:00,
2013-11-28 00:47:00,19.4,12.2,30.38,WSW,250,0.0,2.0,73,0.00,,,0.00,Wunderground v.1.15,2013-11-28 05:47:00,
2013-11-28 00:52:00,19.4,12.2,30.38,WSW,250,1.0,2.0,73,0.00,,,0.00,Wunderground v.1.15,2013-11-28 05:52:00,
2013-11-28 00:57:00,19.2,12.0,30.38,WSW,250,1.0,2.0,73,0.00,,,0.00,Wunderground v.1.15,2013-11-28 05:57:00,
2013-11-28 01:03:00,19.2,12.0,30.38,WSW,250,1.0,1.0,73,0.00,,,0.00,Wunderground v.1.15,2013-11-28 06:03:00,
2013-11-28 01:09:00,19.2,12.0,30.37,WSW,250,1.0,2.0,73,0.00,,,0.00,Wunderground v.1.15,2013-11-28 06:09:00,
2013-11-28 01:14:00,19.2,12.3,30.37,WSW,250,1.0,1.0,74,0.00,,,0.00,Wunderground v.1.15,2013-11-28 06:14:00,
2013-11-28 01:19:00,19.1,11.9,30.37,West,259,3.0,6.0,73,0.00,,,0.00,Wunderground v.1.15,2013-11-28 06:19:00,
2013-11-28 01:25:00,19.1,11.9,30.38,SW,236,3.0,4.0,73,0.00,,,0.00,Wunderground v.1.15,2013-11-28 06:25:00,
2013-11-28 01:31:00,19.1,11.9,30.38,WSW,250,3.0,3.0,73,0.00,,,0.00,Wunderground v.1.15,2013-11-28 06:31:00,
2013-11-28 01:36:00,19.1,11.9,30.38,WSW,250,3.0,3.0,73,0.00,,,0.00,Wunderground v.1.15,2013-11-28 06:36:00,
2013-11-28 01:41:00,19.1,11.9,30.39,WSW,250,2.0,2.0,73,0.00,,,0.00,Wunderground v.1.15,2013-11-28 06:41:00,
2013-11-28 01:47:00,19.1,11.9,30.39,WSW,250,4.0,8.0,73,0.00,,,0.00,Wunderground v.1.15,2013-11-28 06:47:00,
2013-11-28 01:52:00,19.1,11.9,30.39,WSW,250,4.0,4.0,73,0.00,,,0.00,Wunderground v.1.15,2013-11-28 06:52:00,
2013-11-28 01:58:00,19.1,11.9,30.39,WSW,250,2.0,4.0,73,0.00,,,0.00,Wunderground v.1.15,2013-11-28 06:58:00,
2013-11-28 02:03:00,19.1,11.9,30.39,WSW,250,1.0,2.0,73,0.00,,,0.00,Wunderground v.1.15,2013-11-28 07:03:00,
2013-11-28 02:09:00,18.9,11.7,30.39,WSW,250,0.0,2.0,73,0.00,,,0.00,Wunderground v.1.15,2013-11-28 07:09:00,
2013-11-28 02:14:00,18.9,11.7,30.39,WSW,250,0.0,2.0,73,0.00,,,0.00,Wunderground v.1.15,2013-11-28 07:14:00,
2013-11-28 02:20:00,18.9,11.7,30.39,WSW,250,1.0,2.0,73,0.00,,,0.00,Wunderground v.1.15,2013-11-28 07:20:00,
2013-11-28 02:25:00,18.9,11.7,30.39,WSW,250,1.0,2.0,73,0.00,,,0.00,Wunderground v.1.15,2013-11-28 07:25:00,
2013-11-28 02:31:00,18.8,11.9,30.39,WSW,250,1.0,1.0,74,0.00,,,0.00,Wunderground v.1.15,2013-11-28 07:31:00,
2013-11-28 02:36:00,18.6,12.0,30.39,WSW,250,1.0,1.0,75,0.00,,,0.00,Wunderground v.1.15,2013-11-28 07:36:00,
2013-11-28 02:42:00,18.6,12.0,30.39,WSW,250,0.0,1.0,75,0.00,,,0.00,Wunderground v.1.15,2013-11-28 07:42:00,
2013-11-28 02:47:00,18.6,12.0,30.39,WSW,250,0.0,1.0,75,0.00,,,0.00,Wunderground v.1.15,2013-11-28 07:47:00,
2013-11-28 02:53:00,18.4,12.1,30.40,WSW,250,0.0,1.0,76,0.00,,,0.00,Wunderground v.1.15,2013-11-28 07:53:00,
2013-11-28 02:58:00,18.4,12.1,30.40,WSW,250,0.0,1.0,76,0.00,,,0.00,Wunderground v.1.15,2013-11-28 07:58:00,
2013-11-28 03:04:00,18.4,12.1,30.40,WSW,250,0.0,0.0,76,0.00,,,0.00,Wunderground v.1.15,2013-11-28 08:04:00,
2013-11-28 03:09:00,18.3,12.3,30.40,WSW,250,0.0,0.0,77,0.00,,,0.00,Wunderground v.1.15,2013-11-28 08:09:00,
2013-11-28 03:15:00,18.4,12.1,30.40,WSW,250,0.0,0.0,76,0.00,,,0.00,Wunderground v.1.15,2013-11-28 08:15:00,
2013-11-28 03:20:00,18.4,12.1,30.40,WSW,250,0.0,0.0,76,0.00,,,0.00,Wunderground v.1.15,2013-11-28 08:20:00,
2013-11-28 03:26:00,18.4,12.1,30.41,WSW,250,0.0,0.0,76,0.00,,,0.00,Wunderground v.1.15,2013-11-28 08:26:00,
2013-11-28 03:31:00,18.4,12.1,30.41,WSW,250,0.0,0.0,76,0.00,,,0.00,Wunderground v.1.15,2013-11-28 08:31:00,
2013-11-28 03:36:00,18.4,12.1,30.41,WSW,250,0.0,0.0,76,0.00,,,0.00,Wunderground v.1.15,2013-11-28 08:36:00,
2013-11-28 03:42:00,18.3,12.3,30.41,WSW,250,0.0,0.0,77,0.00,,,0.00,Wunderground v.1.15,2013-11-28 08:42:00,
2013-11-28 03:47:00,18.3,12.3,30.41,WSW,250,0.0,0.0,77,0.00,,,0.00,Wunderground v.1.15,2013-11-28 08:47:00,
2013-11-28 03:53:00,18.3,12.3,30.41,WSW,250,0.0,1.0,77,0.00,,,0.00,Wunderground v.1.15,2013-11-28 08:53:00,
2013-11-28 03:58:00,18.3,12.3,30.41,WSW,250,0.0,1.0,77,0.00,,,0.00,Wunderground v.1.15,2013-11-28 08:58:00,
2013-11-28 04:04:00,18.3,12.3,30.41,WSW,250,0.0,1.0,77,0.00,,,0.00,Wunderground v.1.15,2013-11-28 09:04:00,
2013-11-28 04:09:00,18.3,12.0,30.42,WSW,250,1.0,2.0,76,0.00,,,0.00,Wunderground v.1.15,2013-11-28 09:09:00,
2013-11-28 04:15:00,18.3,12.0,30.42,WSW,250,0.0,1.0,76,0.00,,,0.00,Wunderground v.1.15,2013-11-28 09:15:00,
2013-11-28 04:20:00,18.3,12.0,30.42,WSW,250,0.0,0.0,76,0.00,,,0.00,Wunderground v.1.15,2013-11-28 09:20:00,
2013-11-28 04:25:00,18.3,12.3,30.41,WSW,250,0.0,0.0,77,0.00,,,0.00,Wunderground v.1.15,2013-11-28 09:25:00,
2013-11-28 04:31:00,18.3,12.3,30.41,WSW,250,0.0,0.0,77,0.00,,,0.00,Wunderground v.1.15,2013-11-28 09:31:00,
2013-11-28 04:36:00,18.1,12.1,30.41,WSW,250,0.0,2.0,77,0.00,,,0.00,Wunderground v.1.15,2013-11-28 09:36:00,
2013-11-28 04:42:00,18.1,12.1,30.42,WSW,250,0.0,1.0,77,0.00,,,0.00,Wunderground v.1.15,2013-11-28 09:42:00,
2013-11-28 04:48:00,18.1,12.1,30.42,WSW,250,0.0,1.0,77,0.00,,,0.00,Wunderground v.1.15,2013-11-28 09:48:00,
2013-11-28 04:54:00,18.3,12.3,30.41,WSW,250,0.0,1.0,77,0.00,,,0.00,Wunderground v.1.15,2013-11-28 09:54:00,
2013-11-28 05:00:00,18.3,12.3,30.41,WSW,250,0.0,0.0,77,0.00,,,0.00,Wunderground v.1.15,2013-11-28 10:00:00,
2013-11-28 05:05:00,18.3,12.3,30.41,WSW,250,0.0,0.0,77,0.00,,,0.00,Wunderground v.1.15,2013-11-28 10:05:00,
2013-11-28 05:10:00,18.1,12.1,30.41,WSW,250,0.0,0.0,77,0.00,,,0.00,Wunderground v.1.15,2013-11-28 10:10:00,
2013-11-28 05:16:00,18.0,12.3,30.41,WSW,250,0.0,0.0,78,0.00,,,0.00,Wunderground v.1.15,2013-11-28 10:16:00,
2013-11-28 05:21:00,18.1,12.4,30.41,WSW,250,0.0,0.0,78,0.00,,,0.00,Wunderground v.1.15,2013-11-28 10:21:00,
2013-11-28 05:27:00,18.1,12.4,30.42,WSW,250,0.0,0.0,78,0.00,,,0.00,Wunderground v.1.15,2013-11-28 10:27:00,
2013-11-28 05:32:00,18.1,12.4,30.42,WSW,250,0.0,0.0,78,0.00,,,0.00,Wunderground v.1.15,2013-11-28 10:32:00,
2013-11-28 05:38:00,18.3,12.6,30.42,WSW,250,0.0,0.0,78,0.00,,,0.00,Wunderground v.1.15,2013-11-28 10:38:00,
2013-11-28 05:43:00,18.3,12.9,30.42,WSW,250,0.0,0.0,79,0.00,,,0.00,Wunderground v.1.15,2013-11-28 10:43:00,
2013-11-28 05:49:00,18.6,12.9,30.42,WSW,250,0.0,0.0,78,0.00,,,0.00,Wunderground v.1.15,2013-11-28 10:49:00,
2013-11-28 05:54:00,18.8,12.8,30.44,WSW,250,0.0,0.0,77,0.00,,,0.00,Wunderground v.1.15,2013-11-28 10:54:00,
2013-11-28 06:00:00,18.8,12.8,30.44,WSW,250,0.0,0.0,77,0.00,,,0.00,Wunderground v.1.15,2013-11-28 11:00:00,
2013-11-28 06:05:00,18.8,13.1,30.44,WSW,250,0.0,0.0,78,0.00,,,0.00,Wunderground v.1.15,2013-11-28 11:05:00,
2013-11-28 06:11:00,18.8,13.1,30.44,WSW,250,0.0,0.0,78,0.00,,,0.00,Wunderground v.1.15,2013-11-28 11:11:00,
2013-11-28 06:16:00,18.9,13.2,30.44,WSW,250,0.0,0.0,78,0.00,,,0.00,Wunderground v.1.15,2013-11-28 11:16:00,
2013-11-28 06:22:00,19.1,13.4,30.44,WSW,250,0.0,0.0,78,0.00,,,0.00,Wunderground v.1.15,2013-11-28 11:22:00,
2013-11-28 06:27:00,19.2,13.2,30.44,WSW,250,0.0,0.0,77,0.00,,,0.00,Wunderground v.1.15,2013-11-28 11:27:00,
2013-11-28 06:33:00,19.2,13.2,30.44,WSW,250,0.0,0.0,77,0.00,,,0.00,Wunderground v.1.15,2013-11-28 11:33:00,
2013-11-28 06:38:00,19.2,13.2,30.45,WSW,250,0.0,0.0,77,0.00,,,0.00,Wunderground v.1.15,2013-11-28 11:38:00,
2013-11-28 06:44:00,19.1,13.1,30.45,WSW,250,0.0,0.0,77,0.00,,,0.00,Wunderground v.1.15,2013-11-28 11:44:00,
2013-11-28 06:49:00,19.1,13.1,30.45,WSW,250,0.0,0.0,77,0.00,,,0.00,Wunderground v.1.15,2013-11-28 11:49:00,
2013-11-28 06:55:00,19.2,13.2,30.46,WSW,250,0.0,0.0,77,0.00,,,0.00,Wunderground v.1.15,2013-11-28 11:55:00,
2013-11-28 07:00:00,19.1,13.1,30.46,WSW,250,0.0,0.0,77,0.00,,,0.00,Wunderground v.1.15,2013-11-28 12:00:00,
2013-11-28 07:06:00,19.2,13.2,30.46,WSW,250,0.0,0.0,77,0.00,,,0.00,Wunderground v.1.15,2013-11-28 12:06:00,
2013-11-28 07:11:00,19.2,13.2,30.46,WSW,250,0.0,0.0,77,0.00,,,0.00,Wunderground v.1.15,2013-11-28 12:11:00,
2013-11-28 07:17:00,19.4,13.4,30.46,WSW,250,0.0,0.0,77,0.00,,,0.00,Wunderground v.1.15,2013-11-28 12:17:00,
2013-11-28 07:23:00,19.4,13.4,30.47,WSW,250,0.0,0.0,77,0.00,,,0.00,Wunderground v.1.15,2013-11-28 12:23:00,
2013-11-28 07:28:00,19.5,13.5,30.47,WSW,250,0.0,0.0,77,0.00,,,0.00,Wunderground v.1.15,2013-11-28 12:28:00,
2013-11-28 07:34:00,19.5,13.5,30.47,WSW,250,0.0,0.0,77,0.00,,,0.00,Wunderground v.1.15,2013-11-28 12:34:00,
2013-11-28 07:39:00,19.7,13.7,30.47,WSW,250,0.0,0.0,77,0.00,,,0.00,Wunderground v.1.15,2013-11-28 12:39:00,
2013-11-28 07:44:00,19.9,13.9,30.47,WSW,250,0.0,0.0,77,0.00,,,0.00,Wunderground v.1.15,2013-11-28 12:44:00,
2013-11-28 07:50:00,20.2,14.1,30.47,WSW,250,0.0,0.0,77,0.00,,,0.00,Wunderground v.1.15,2013-11-28 12:50:00,
2013-11-28 07:56:00,20.5,14.4,30.47,WSW,250,0.0,1.0,77,0.00,,,0.00,Wunderground v.1.15,2013-11-28 12:56:00,
2013-11-28 08:02:00,20.6,14.5,30.47,WSW,250,0.0,0.0,77,0.00,,,0.00,Wunderground v.1.15,2013-11-28 13:02:00,
2013-11-28 08:07:00,21.0,14.9,30.49,WSW,250,0.0,0.0,77,0.00,,,0.00,Wunderground v.1.15,2013-11-28 13:07:00,
2013-11-28 08:13:00,21.3,15.2,30.49,WSW,250,0.0,0.0,77,0.00,,,0.00,Wunderground v.1.15,2013-11-28 13:13:00,
2013-11-28 08:18:00,21.8,15.7,30.49,WSW,250,0.0,0.0,77,0.00,,,0.00,Wunderground v.1.15,2013-11-28 13:18:00,
2013-11-28 08:24:00,22.2,16.1,30.49,WSW,250,0.0,0.0,77,0.00,,,0.00,Wunderground v.1.15,2013-11-28 13:24:00,
2013-11-28 08:29:00,22.7,16.6,30.49,WSW,250,0.0,0.0,77,0.00,,,0.00,Wunderground v.1.15,2013-11-28 13:29:00,
2013-11-28 08:35:00,23.2,16.4,30.49,West,263,0.0,0.0,75,0.00,,,0.00,Wunderground v.1.15,2013-11-28 13:35:00,
2013-11-28 08:40:00,23.8,17.0,30.50,NNW,344,0.0,0.0,75,0.00,,,0.00,Wunderground v.1.15,2013-11-28 13:40:00,
2013-11-28 08:46:00,24.5,17.7,30.50,NNW,344,0.0,0.0,75,0.00,,,0.00,Wunderground v.1.15,2013-11-28 13:46:00,
2013-11-28 08:51:00,26.0,18.5,30.50,NNE,15,0.0,0.0,73,0.00,,,0.00,Wunderground v.1.15,2013-11-28 13:51:00,
2013-11-28 08:57:00,27.2,18.7,30.50,NNE,15,0.0,0.0,70,0.00,,,0.00,Wunderground v.1.15,2013-11-28 13:57:00,
2013-11-28 09:02:00,27.8,18.6,30.50,NNE,15,0.0,0.0,68,0.00,,,0.00,Wunderground v.1.15,2013-11-28 14:02:00,
2013-11-28 09:08:00,28.4,18.5,30.49,NNE,15,0.0,0.0,66,0.00,,,0.00,Wunderground v.1.15,2013-11-28 14:08:00,
2013-11-28 09:13:00,28.8,19.6,30.49,NNE,15,0.0,1.0,68,0.00,,,0.00,Wunderground v.1.15,2013-11-28 14:13:00,
2013-11-28 09:19:00,29.1,19.2,30.49,NNE,15,1.0,2.0,66,0.00,,,0.00,Wunderground v.1.15,2013-11-28 14:19:00,
2013-11-28 09:24:00,29.3,18.6,30.49,NNE,15,0.0,0.0,64,0.00,,,0.00,Wunderground v.1.15,2013-11-28 14:24:00,
2013-11-28 09:30:00,28.4,18.1,30.49,NNE,29,1.0,1.0,65,0.00,,,0.00,Wunderground v.1.15,2013-11-28 14:30:00,
2013-11-28 09:35:00,28.2,18.3,30.49,NNE,30,2.0,4.0,66,0.00,,,0.00,Wunderground v.1.15,2013-11-28 14:35:00,
2013-11-28 09:41:00,28.2,18.3,30.50,NE,46,2.0,3.0,66,0.00,,,0.00,Wunderground v.1.15,2013-11-28 14:41:00,
2013-11-28 09:46:00,28.1,17.8,30.50,NE,44,3.0,6.0,65,0.00,,,0.00,Wunderground v.1.15,2013-11-28 14:46:00,
2013-11-28 09:51:00,28.1,18.5,30.50,NE,36,3.0,4.0,67,0.00,,,0.00,Wunderground v.1.15,2013-11-28 14:51:00,
2013-11-28 09:57:00,28.2,18.6,30.50,NE,37,3.0,5.0,67,0.00,,,0.00,Wunderground v.1.15,2013-11-28 14:57:00,
2013-11-28 10:02:00,28.7,19.5,30.50,NE,37,2.0,5.0,68,0.00,,,0.00,Wunderground v.1.15,2013-11-28 15:02:00,
2013-11-28 10:08:00,29.0,18.7,30.49,NE,36,1.0,5.0,65,0.00,,,0.00,Wunderground v.1.15,2013-11-28 15:08:00,
2013-11-28 10:14:00,29.7,20.1,30.49,NNE,15,1.0,1.0,67,0.00,,,0.00,Wunderground v.1.15,2013-11-28 15:14:00,
2013-11-28 10:20:00,30.0,19.7,30.49,North,8,1.0,1.0,65,0.00,,,0.00,Wunderground v.1.15,2013-11-28 15:20:00,
2013-11-28 10:26:00,29.7,19.4,30.50,NNE,29,1.0,4.0,65,0.00,,,0.00,Wunderground v.1.15,2013-11-28 15:26:00,
2013-11-28 10:31:00,29.7,18.6,30.50,NNE,29,1.0,2.0,63,0.00,,,0.00,Wunderground v.1.15,2013-11-28 15:31:00,
2013-11-28 10:36:00,30.1,19.4,30.50,NW,316,1.0,3.0,64,0.00,,,0.00,Wunderground v.1.15,2013-11-28 15:36:00,
2013-11-28 10:42:00,30.7,20.0,30.50,NNE,17,0.0,2.0,64,0.00,,,0.00,Wunderground v.1.15,2013-11-28 15:42:00,
2013-11-28 10:47:00,31.0,19.9,30.50,NNE,16,0.0,2.0,63,0.00,,,0.00,Wunderground v.1.15,2013-11-28 15:47:00,
2013-11-28 10:53:00,30.9,19.4,30.50,NNE,23,0.0,3.0,62,0.00,,,0.00,Wunderground v.1.15,2013-11-28 15:53:00,
2013-11-28 10:58:00,31.5,20.0,30.50,NNE,32,1.0,4.0,62,0.00,,,0.00,Wunderground v.1.15,2013-11-28 15:58:00,
2013-11-28 11:04:00,31.8,19.9,30.50,NNE,32,0.0,1.0,61,0.00,,,0.00,Wunderground v.1.15,2013-11-28 16:04:00,
2013-11-28 11:09:00,31.8,20.3,30.50,NNE,32,0.0,1.0,62,0.00,,,0.00,Wunderground v.1.15,2013-11-28 16:09:00,
2013-11-28 11:15:00,31.3,19.4,30.50,NE,38,1.0,5.0,61,0.00,,,0.00,Wunderground v.1.15,2013-11-28 16:15:00,
2013-11-28 11:21:00,31.3,19.4,30.50,NE,36,2.0,2.0,61,0.00,,,0.00,Wunderground v.1.15,2013-11-28 16:21:00,
2013-11-28 11:27:00,31.8,20.6,30.50,NE,35,1.0,2.0,63,0.00,,,0.00,Wunderground v.1.15,2013-11-28 16:27:00,
2013-11-28 11:32:00,32.5,19.3,30.50,NE,35,0.0,0.0,58,0.00,,,0.00,Wunderground v.1.15,2013-11-28 16:32:00,
2013-11-28 11:38:00,31.9,19.6,30.49,NE,53,1.0,3.0,60,0.00,,,0.00,Wunderground v.1.15,2013-11-28 16:38:00,
2013-11-28 11:43:00,32.1,19.4,30.49,NE,53,1.0,1.0,59,0.00,,,0.00,Wunderground v.1.15,2013-11-28 16:43:00,
2013-11-28 11:49:00,32.2,19.9,30.49,NE,52,0.0,1.0,60,0.00,,,0.00,Wunderground v.1.15,2013-11-28 16:49:00,
2013-11-28 11:54:00,32.5,19.3,30.49,NE,53,0.0,0.0,58,0.00,,,0.00,Wunderground v.1.15,2013-11-28 16:54:00,
2013-11-28 12:00:00,33.2,20.0,30.49,NE,53,0.0,0.0,58,0.00,,,0.00,Wunderground v.1.15,2013-11-28 17:00:00,
2013-11-28 12:05:00,33.2,20.0,30.49,NE,50,1.0,5.0,58,0.00,,,0.00,Wunderground v.1.15,2013-11-28 17:05:00,
2013-11-28 12:11:00,33.7,19.2,30.47,NE,51,1.0,1.0,55,0.00,,,0.00,Wunderground v.1.15,2013-11-28 17:11:00,
2013-11-28 12:16:00,33.8,20.6,30.47,NE,39,0.0,1.0,58,0.00,,,0.00,Wunderground v.1.15,2013-11-28 17:16:00,
2013-11-28 12:22:00,34.6,20.9,30.47,NNE,17,0.0,0.0,57,0.00,,,0.00,Wunderground v.1.15,2013-11-28 17:22:00,
2013-11-28 12:27:00,34.7,20.6,30.47,NNE,18,0.0,0.0,56,0.00,,,0.00,Wunderground v.1.15,2013-11-28 17:27:00,
2013-11-28 12:33:00,35.0,20.9,30.47,NNE,29,0.0,2.0,56,0.00,,,0.00,Wunderground v.1.15,2013-11-28 17:33:00,
2013-11-28 12:38:00,35.0,20.9,30.47,ENE,71,1.0,2.0,56,0.00,,,0.00,Wunderground v.1.15,2013-11-28 17:38:00,
2013-11-28 12:44:00,35.2,20.6,30.47,ENE,71,0.0,1.0,55,0.00,,,0.00,Wunderground v.1.15,2013-11-28 17:44:00,
2013-11-28 12:49:00,35.6,21.0,30.47,ENE,68,0.0,5.0,55,0.00,,,0.00,Wunderground v.1.15,2013-11-28 17:49:00,
2013-11-28 12:54:00,36.3,21.2,30.47,ENE,68,1.0,2.0,54,0.00,,,0.00,Wunderground v.1.15,2013-11-28 17:54:00,
2013-11-28 13:00:00,36.8,21.7,30.47,ENE,68,1.0,1.0,54,0.00,,,0.00,Wunderground v.1.15,2013-11-28 18:00:00,
2013-11-28 13:05:00,36.6,20.6,30.47,ENE,77,1.0,2.0,52,0.00,,,0.00,Wunderground v.1.15,2013-11-28 18:05:00,
2013-11-28 13:11:00,37.0,21.4,30.46,ENE,65,1.0,1.0,53,0.00,,,0.00,Wunderground v.1.15,2013-11-28 18:11:00,
2013-11-28 13:17:00,37.3,22.2,30.46,ENE,69,0.0,2.0,54,0.00,,,0.00,Wunderground v.1.15,2013-11-28 18:17:00,
2013-11-28 13:23:00,36.8,20.8,30.45,NE,56,1.0,1.0,52,0.00,,,0.00,Wunderground v.1.15,2013-11-28 18:23:00,
2013-11-28 13:28:00,36.8,20.8,30.45,ENE,72,1.0,2.0,52,0.00,,,0.00,Wunderground v.1.15,2013-11-28 18:28:00,
2013-11-28 13:34:00,37.3,20.3,30.45,ENE,72,1.0,1.0,50,0.00,,,0.00,Wunderground v.1.15,2013-11-28 18:34:00,
2013-11-28 13:39:00,37.5,20.5,30.45,ENE,72,0.0,1.0,50,0.00,,,0.00,Wunderground v.1.15,2013-11-28 18:39:00,
2013-11-28 13:44:00,37.5,20.5,30.45,ENE,72,0.0,2.0,50,0.00,,,0.00,Wunderground v.1.15,2013-11-28 18:44:00,
2013-11-28 13:50:00,37.8,21.3,30.45,NE,49,1.0,1.0,51,0.00,,,0.00,Wunderground v.1.15,2013-11-28 18:50:00,
2013-11-28 13:55:00,38.6,21.5,30.45,NE,49,1.0,1.0,50,0.00,,,0.00,Wunderground v.1.15,2013-11-28 18:55:00,
2013-11-28 14:01:00,38.8,21.3,30.45,NE,52,1.0,1.0,49,0.00,,,0.00,Wunderground v.1.15,2013-11-28 19:01:00,
2013-11-28 14:06:00,38.3,20.8,30.45,ENE,57,2.0,5.0,49,0.00,,,0.00,Wunderground v.1.15,2013-11-28 19:06:00,
2013-11-28 14:12:00,38.8,21.3,30.44,ENE,59,1.0,1.0,49,0.00,,,0.00,Wunderground v.1.15,2013-11-28 19:12:00,
2013-11-28 14:17:00,38.2,20.2,30.44,ENE,75,1.0,3.0,48,0.00,,,0.00,Wunderground v.1.15,2013-11-28 19:17:00,
2013-11-28 14:22:00,37.9,20.4,30.44,ENE,75,1.0,1.0,49,0.00,,,0.00,Wunderground v.1.15,2013-11-28 19:22:00,
2013-11-28 14:28:00,38.0,20.5,30.44,ENE,75,1.0,3.0,49,0.00,,,0.00,Wunderground v.1.15,2013-11-28 19:28:00,
2013-11-28 14:33:00,38.5,20.5,30.44,ENE,75,0.0,1.0,48,0.00,,,0.00,Wunderground v.1.15,2013-11-28 19:33:00,
2013-11-28 14:39:00,38.9,21.3,30.43,ENE,75,0.0,2.0,49,0.00,,,0.00,Wunderground v.1.15,2013-11-28 19:39:00,
2013-11-28 14:45:00,38.9,20.9,30.43,ENE,75,0.0,0.0,48,0.00,,,0.00,Wunderground v.1.15,2013-11-28 19:45:00,
2013-11-28 14:50:00,38.9,20.9,30.43,ENE,76,0.0,0.0,48,0.00,,,0.00,Wunderground v.1.15,2013-11-28 19:50:00,
2013-11-28 14:55:00,38.6,21.5,30.43,ENE,78,1.0,5.0,50,0.00,,,0.00,Wunderground v.1.15,2013-11-28 19:55:00,
2013-11-28 15:01:00,38.8,21.3,30.43,ENE,78,2.0,2.0,49,0.00,,,0.00,Wunderground v.1.15,2013-11-28 20:01:00,
2013-11-28 15:06:00,38.9,21.3,30.43,ENE,77,1.0,2.0,49,0.00,,,0.00,Wunderground v.1.15,2013-11-28 20:06:00,
2013-11-28 15:12:00,38.5,20.5,30.43,ENE,77,0.0,2.0,48,0.00,,,0.00,Wunderground v.1.15,2013-11-28 20:12:00,
2013-11-28 15:17:00,38.5,21.0,30.43,ENE,77,0.0,2.0,49,0.00,,,0.00,Wunderground v.1.15,2013-11-28 20:17:00,
2013-11-28 15:23:00,38.8,20.8,30.44,ENE,77,0.0,0.0,48,0.00,,,0.00,Wunderground v.1.15,2013-11-28 20:23:00,
2013-11-28 15:28:00,38.9,20.9,30.44,ENE,78,0.0,0.0,48,0.00,,,0.00,Wunderground v.1.15,2013-11-28 20:28:00,
2013-11-28 15:34:00,38.8,21.3,30.44,ENE,78,0.0,0.0,49,0.00,,,0.00,Wunderground v.1.15,2013-11-28 20:34:00,
2013-11-28 15:39:00,38.5,21.0,30.44,ENE,77,0.0,0.0,49,0.00,,,0.00,Wunderground v.1.15,2013-11-28 20:39:00,
2013-11-28 15:45:00,38.3,20.8,30.44,ENE,77,0.0,0.0,49,0.00,,,0.00,Wunderground v.1.15,2013-11-28 20:45:00,
2013-11-28 15:50:00,38.3,20.8,30.44,ENE,77,0.0,2.0,49,0.00,,,0.00,Wunderground v.1.15,2013-11-28 20:50:00,
2013-11-28 15:56:00,38.3,21.3,30.45,ENE,77,0.0,3.0,50,0.00,,,0.00,Wunderground v.1.15,2013-11-28 20:56:00,
2013-11-28 16:01:00,38.5,21.9,30.45,ENE,77,0.0,0.0,51,0.00,,,0.00,Wunderground v.1.15,2013-11-28 21:01:00,
2013-11-28 16:07:00,38.2,20.2,30.45,ENE,78,0.0,4.0,48,0.00,,,0.00,Wunderground v.1.15,2013-11-28 21:07:00,
2013-11-28 16:13:00,37.9,20.4,30.45,ENE,78,1.0,1.0,49,0.00,,,0.00,Wunderground v.1.15,2013-11-28 21:13:00,
2013-11-28 16:19:00,37.8,20.3,30.45,NE,38,0.0,1.0,49,0.00,,,0.00,Wunderground v.1.15,2013-11-28 21:19:00,
2013-11-28 16:24:00,37.8,20.3,30.46,NE,39,0.0,0.0,49,0.00,,,0.00,Wunderground v.1.15,2013-11-28 21:24:00,
2013-11-28 16:29:00,37.6,20.1,30.46,NE,40,0.0,3.0,49,0.00,,,0.00,Wunderground v.1.15,2013-11-28 21:29:00,
2013-11-28 16:35:00,37.6,20.6,30.46,NE,47,0.0,0.0,50,0.00,,,0.00,Wunderground v.1.15,2013-11-28 21:35:00,
2013-11-28 16:40:00,37.5,20.5,30.46,NE,47,0.0,0.0,50,0.00,,,0.00,Wunderground v.1.15,2013-11-28 21:40:00,
2013-11-28 16:46:00,37.3,19.9,30.46,NE,47,0.0,0.0,49,0.00,,,0.00,Wunderground v.1.15,2013-11-28 21:46:00,
2013-11-28 16:51:00,37.2,19.8,30.46,NE,47,0.0,0.0,49,0.00,,,0.00,Wunderground v.1.15,2013-11-28 21:51:00,
2013-11-28 16:57:00,36.9,20.4,30.45,NE,47,0.0,0.0,51,0.00,,,0.00,Wunderground v.1.15,2013-11-28 21:57:00,
2013-11-28 17:02:00,36.8,20.8,30.45,NE,47,0.0,0.0,52,0.00,,,0.00,Wunderground v.1.15,2013-11-28 22:02:00,
2013-11-28 17:08:00,36.5,21.0,30.46,NE,47,0.0,0.0,53,0.00,,,0.00,Wunderground v.1.15,2013-11-28 22:08:00,
2013-11-28 17:13:00,36.3,20.8,30.46,NE,47,0.0,0.0,53,0.00,,,0.00,Wunderground v.1.15,2013-11-28 22:13:00,
2013-11-28 17:19:00,36.2,21.1,30.46,NE,47,0.0,0.0,54,0.00,,,0.00,Wunderground v.1.15,2013-11-28 22:19:00,
2013-11-28 17:24:00,35.9,21.3,30.47,NE,47,0.0,0.0,55,0.00,,,0.00,Wunderground v.1.15,2013-11-28 22:24:00,
2013-11-28 17:30:00,35.8,21.6,30.47,NE,47,0.0,0.0,56,0.00,,,0.00,Wunderground v.1.15,2013-11-28 22:30:00,
2013-11-28 17:35:00,35.6,21.4,30.47,NE,47,0.0,0.0,56,0.00,,,0.00,Wunderground v.1.15,2013-11-28 22:35:00,
2013-11-28 17:41:00,35.5,21.3,30.47,NE,47,0.0,0.0,56,0.00,,,0.00,Wunderground v.1.15,2013-11-28 22:41:00,
2013-11-28 17:46:00,35.2,21.5,30.47,NE,47,0.0,0.0,57,0.00,,,0.00,Wunderground v.1.15,2013-11-28 22:46:00,
2013-11-28 17:52:00,35.0,21.3,30.47,NE,47,0.0,0.0,57,0.00,,,0.00,Wunderground v.1.15,2013-11-28 22:52:00,
2013-11-28 17:57:00,35.0,20.9,30.47,NE,47,0.0,0.0,56,0.00,,,0.00,Wunderground v.1.15,2013-11-28 22:57:00,
2013-11-28 18:02:00,34.9,21.2,30.47,NE,47,0.0,0.0,57,0.00,,,0.00,Wunderground v.1.15,2013-11-28 23:02:00,
2013-11-28 18:08:00,34.9,21.2,30.47,NE,47,0.0,0.0,57,0.00,,,0.00,Wunderground v.1.15,2013-11-28 23:08:00,
2013-11-28 18:14:00,34.9,21.2,30.47,NE,47,0.0,0.0,57,0.00,,,0.00,Wunderground v.1.15,2013-11-28 23:14:00,
2013-11-28 18:19:00,34.9,21.6,30.47,NE,47,0.0,0.0,58,0.00,,,0.00,Wunderground v.1.15,2013-11-28 23:19:00,
2013-11-28 18:24:00,34.6,21.3,30.48,NE,47,0.0,0.0,58,0.00,,,0.00,Wunderground v.1.15,2013-11-28 23:24:00,
2013-11-28 18:30:00,34.4,21.1,30.48,NE,47,0.0,0.0,58,0.00,,,0.00,Wunderground v.1.15,2013-11-28 23:30:00,
2013-11-28 18:35:00,34.4,21.1,30.48,NE,47,0.0,0.0,58,0.00,,,0.00,Wunderground v.1.15,2013-11-28 23:35:00,
2013-11-28 18:41:00,34.3,21.4,30.49,NE,47,0.0,0.0,59,0.00,,,0.00,Wunderground v.1.15,2013-11-28 23:41:00,
2013-11-28 18:47:00,34.1,21.3,30.49,NE,47,0.0,0.0,59,0.00,,,0.00,Wunderground v.1.15,2013-11-28 23:47:00,
2013-11-28 18:52:00,34.0,21.6,30.48,NE,47,0.0,0.0,60,0.00,,,0.00,Wunderground v.1.15,2013-11-28 23:52:00,
2013-11-28 18:58:00,33.7,21.7,30.48,NE,47,0.0,0.0,61,0.00,,,0.00,Wunderground v.1.15,2013-11-28 23:58:00,
2013-11-28 19:03:00,33.7,21.3,30.48,NE,47,0.0,0.0,60,0.00,,,0.00,Wunderground v.1.15,2013-11-29 00:03:00,
2013-11-28 19:09:00,34.0,20.8,30.48,NE,47,0.0,1.0,58,0.00,,,0.00,Wunderground v.1.15,2013-11-29 00:09:00,
2013-11-28 19:14:00,33.8,21.4,30.48,NE,47,0.0,0.0,60,0.00,,,0.00,Wunderground v.1.15,2013-11-29 00:14:00,
2013-11-28 19:20:00,34.1,20.9,30.48,NE,47,0.0,0.0,58,0.00,,,0.00,Wunderground v.1.15,2013-11-29 00:20:00,
2013-11-28 19:25:00,34.6,20.9,30.49,NE,47,0.0,0.0,57,0.00,,,0.00,Wunderground v.1.15,2013-11-29 00:25:00,
2013-11-28 19:31:00,34.6,20.9,30.49,NE,47,0.0,2.0,57,0.00,,,0.00,Wunderground v.1.15,2013-11-29 00:31:00,
2013-11-28 19:36:00,34.1,21.3,30.49,NE,47,0.0,2.0,59,0.00,,,0.00,Wunderground v.1.15,2013-11-29 00:36:00,
2013-11-28 19:42:00,34.1,21.3,30.50,NE,47,0.0,0.0,59,0.00,,,0.00,Wunderground v.1.15,2013-11-29 00:42:00,
2013-11-28 19:47:00,34.1,20.4,30.50,NE,47,0.0,0.0,57,0.00,,,0.00,Wunderground v.1.15,2013-11-29 00:47:00,
2013-11-28 19:53:00,34.4,20.3,30.49,NE,47,0.0,0.0,56,0.00,,,0.00,Wunderground v.1.15,2013-11-29 00:53:00,
2013-11-28 19:58:00,34.6,19.6,30.49,NE,47,0.0,0.0,54,0.00,,,0.00,Wunderground v.1.15,2013-11-29 00:58:00,
2013-11-28 20:03:00,34.7,20.2,30.49,NE,47,0.0,0.0,55,0.00,,,0.00,Wunderground v.1.15,2013-11-29 01:03:00,
2013-11-28 20:09:00,34.4,19.5,30.49,NE,47,0.0,0.0,54,0.00,,,0.00,Wunderground v.1.15,2013-11-29 01:09:00,
2013-11-28 20:14:00,34.7,20.2,30.49,NE,47,0.0,0.0,55,0.00,,,0.00,Wunderground v.1.15,2013-11-29 01:14:00,
2013-11-28 20:20:00,34.3,20.6,30.49,NE,47,0.0,0.0,57,0.00,,,0.00,Wunderground v.1.15,2013-11-29 01:20:00,
2013-11-28 20:26:00,34.3,19.8,30.49,NE,48,0.0,1.0,55,0.00,,,0.00,Wunderground v.1.15,2013-11-29 01:26:00,
2013-11-28 20:32:00,34.4,19.5,30.49,NE,48,0.0,0.0,54,0.00,,,0.00,Wunderground v.1.15,2013-11-29 01:32:00,
2013-11-28 20:37:00,34.4,18.6,30.49,NE,48,0.0,0.0,52,0.00,,,0.00,Wunderground v.1.15,2013-11-29 01:37:00,
2013-11-28 20:43:00,34.1,19.2,30.49,NE,48,0.0,0.0,54,0.00,,,0.00,Wunderground v.1.15,2013-11-29 01:43:00,
2013-11-28 20:48:00,33.7,20.1,30.49,NE,48,0.0,0.0,57,0.00,,,0.00,Wunderground v.1.15,2013-11-29 01:48:00,
2013-11-28 20:54:00,33.4,19.8,30.48,NE,48,0.0,0.0,57,0.00,,,0.00,Wunderground v.1.15,2013-11-29 01:54:00,
2013-11-28 20:59:00,33.1,19.5,30.48,NE,47,0.0,0.0,57,0.00,,,0.00,Wunderground v.1.15,2013-11-29 01:59:00,
2013-11-28 21:05:00,33.1,19.1,30.48,NE,47,0.0,0.0,56,0.00,,,0.00,Wunderground v.1.15,2013-11-29 02:05:00,
2013-11-28 21:10:00,33.2,18.3,30.49,NE,47,0.0,0.0,54,0.00,,,0.00,Wunderground v.1.15,2013-11-29 02:10:00,
2013-11-28 21:16:00,33.1,18.7,30.49,NE,47,0.0,2.0,55,0.00,,,0.00,Wunderground v.1.15,2013-11-29 02:16:00,
2013-11-28 21:21:00,32.8,18.8,30.49,NE,47,0.0,0.0,56,0.00,,,0.00,Wunderground v.1.15,2013-11-29 02:21:00,
2013-11-28 21:27:00,32.5,18.1,30.49,WNW,285,1.0,1.0,55,0.00,,,0.00,Wunderground v.1.15,2013-11-29 02:27:00,
2013-11-28 21:33:00,32.8,18.0,30.49,WNW,283,1.0,3.0,54,0.00,,,0.00,Wunderground v.1.15,2013-11-29 02:33:00,
2013-11-28 21:39:00,32.7,18.7,30.49,West,267,0.0,3.0,56,0.00,,,0.00,Wunderground v.1.15,2013-11-29 02:39:00,
2013-11-28 21:45:00,32.5,17.7,30.49,West,267,0.0,1.0,54,0.00,,,0.00,Wunderground v.1.15,2013-11-29 02:45:00,
2013-11-28 21:50:00,32.5,17.7,30.49,West,267,0.0,1.0,54,0.00,,,0.00,Wunderground v.1.15,2013-11-29 02:50:00,
2013-11-28 21:55:00,32.8,17.5,30.48,West,267,0.0,1.0,53,0.00,,,0.00,Wunderground v.1.15,2013-11-29 02:55:00,
2013-11-28 22:01:00,32.7,17.9,30.48,West,267,0.0,0.0,54,0.00,,,0.00,Wunderground v.1.15,2013-11-29 03:01:00,
2013-11-28 22:06:00,32.5,18.1,30.49,West,267,0.0,0.0,55,0.00,,,0.00,Wunderground v.1.15,2013-11-29 03:06:00,
2013-11-28 22:12:00,32.7,17.4,30.49,West,267,0.0,0.0,53,0.00,,,0.00,Wunderground v.1.15,2013-11-29 03:12:00,
2013-11-28 22:17:00,32.8,17.5,30.49,West,267,0.0,1.0,53,0.00,,,0.00,Wunderground v.1.15,2013-11-29 03:17:00,
2013-11-28 22:23:00,32.9,17.2,30.50,West,267,0.0,3.0,52,0.00,,,0.00,Wunderground v.1.15,2013-11-29 03:23:00,
2013-11-28 22:28:00,32.8,17.1,30.50,West,267,1.0,3.0,52,0.00,,,0.00,Wunderground v.1.15,2013-11-29 03:28:00,
2013-11-28 22:34:00,33.1,18.2,30.50,West,261,2.0,3.0,54,0.00,,,0.00,Wunderground v.1.15,2013-11-29 03:34:00,
2013-11-28 22:39:00,32.9,18.1,30.50,West,261,2.0,3.0,54,0.00,,,0.00,Wunderground v.1.15,2013-11-29 03:39:00,
2013-11-28 22:44:00,32.8,18.0,30.50,West,261,2.0,3.0,54,0.00,,,0.00,Wunderground v.1.15,2013-11-29 03:44:00,
2013-11-28 22:50:00,33.1,17.8,30.50,West,261,1.0,1.0,53,0.00,,,0.00,Wunderground v.1.15,2013-11-29 03:50:00,
2013-11-28 22:55:00,33.2,17.9,30.50,West,261,0.0,4.0,53,0.00,,,0.00,Wunderground v.1.15,2013-11-29 03:55:00,
2013-11-28 23:01:00,33.8,17.6,30.50,West,261,1.0,1.0,51,0.00,,,0.00,Wunderground v.1.15,2013-11-29 04:01:00,
2013-11-28 23:06:00,34.1,17.8,30.50,West,260,1.0,2.0,51,0.00,,,0.00,Wunderground v.1.15,2013-11-29 04:06:00,
2013-11-28 23:12:00,34.4,17.2,30.50,West,260,1.0,3.0,49,0.00,,,0.00,Wunderground v.1.15,2013-11-29 04:12:00,
2013-11-28 23:18:00,34.6,17.4,30.50,West,260,1.0,3.0,49,0.00,,,0.00,Wunderground v.1.15,2013-11-29 04:18:00,
2013-11-28 23:23:00,34.7,17.0,30.51,West,260,1.0,3.0,48,0.00,,,0.00,Wunderground v.1.15,2013-11-29 04:23:00,
2013-11-28 23:29:00,35.0,17.3,30.51,West,260,1.0,3.0,48,0.00,,,0.00,Wunderground v.1.15,2013-11-29 04:29:00,
2013-11-28 23:35:00,34.7,17.5,30.51,West,260,0.0,1.0,49,0.00,,,0.00,Wunderground v.1.15,2013-11-29 04:35:00,
2013-11-28 23:41:00,34.4,17.7,30.51,West,260,0.0,0.0,50,0.00,,,0.00,Wunderground v.1.15,2013-11-29 04:41:00,
2013-11-28 23:46:00,34.4,17.2,30.51,West,260,0.0,1.0,49,0.00,,,0.00,Wunderground v.1.15,2013-11-29 04:46:00,
2013-11-28 23:51:00,34.7,17.5,30.51,West,260,0.0,0.0,49,0.00,,,0.00,Wunderground v.1.15,2013-11-29 04:51:00,
2013-11-28 23:57:00,34.4,17.7,30.51,West,260,0.0,0.0,50,0.00,,,0.00,Wunderground v.1.15,2013-11-29 04:57:00,